Regional Weather Roundup
Issued by NWS

Home | Current Version | Previous Version | Text Only | Print | Product List | Glossary Off
Versions: 1 2 3 4 5 6 7 8 9 10 11 12 13 14 15 16 17 18 19 20 21 22 23 24 25 26 27 28 29 30 31 32 33 34 35 36 37 38 39 40 41 42 43 44 45 46 47 48 49 50

327
ASUS45 KCYS 010910
RWRWY

WYOMING REGIONAL WEATHER ROUNDUP
NATIONAL WEATHER SERVICE CHEYENNE WY
300 AM MDT SAT OCT 01 2016

NOTE:  "FAIR" INDICATES FEW OR NO CLOUDS BELOW 12,000 FEET
WITH NO SIGNIFICANT WEATHER AND/OR OBSTRUCTIONS TO VISIBILITY.

WYZ001-011000-
YELLOWSTONE NATIONAL PARK

CITY           SKY/WX    TMP DP  RH WIND       PRES   REMARKS
LK YELLOWSTONE   N/A     32  32 100 CALM      30.28F
W YELLOWSTONE  NOT AVBL

$$
WYZ002>013-054>058-071-098>099-011000-
NORTHERN WYOMING

CITY           SKY/WX    TMP DP  RH WIND       PRES   REMARKS
JACKSON        FAIR      36  36 100 N6        30.22F WCI  31
CODY           FAIR      56  43  61 SW6       30.11S
GREYBULL       FAIR      53  49  86 CALM      30.05S
WORLAND        FAIR      49  45  86 SW6       30.06S
SHERIDAN       FAIR      50  44  80 CALM      30.04F
BUFFALO        FAIR      57  41  55 W8        30.10F
GILLETTE       FAIR      47  45  93 SW3       30.06F
HULETT         FAIR      54  45  71 SW3       30.07F
NEWCASTLE      FAIR      52  43  71 W7        30.08S

$$
WYZ014>020-022>026-101>103-011000-
CENTRAL WYOMING

CITY           SKY/WX    TMP DP  RH WIND       PRES   REMARKS
BIG PINEY      FAIR      38  34  85 CALM      30.25F
PINEDALE       PTSUNNY   36  34  93 N6        30.26F WCI  31
DUBOIS         FAIR      41  36  81 NW9       30.24F
LANDER         FAIR      49  41  74 E3        30.13F
RIVERTON       FAIR      50  44  80 NW9       30.14F
CASPER         FAIR      46  40  79 W6        30.13F
DOUGLAS        FAIR      45  41  86 NW3       30.12F

$$
WYZ021-027>030-104>119-011000-
SOUTHERN WYOMING

CITY           SKY/WX    TMP DP  RH WIND       PRES   REMARKS
EVANSTON       FAIR      50  39  66 SE7       30.24F
FORT BRIDGER   CLOUDY    52  41  66 CALM      30.26F
ROCK SPRINGS   FAIR      51  41  68 SE8       30.23S
DIXON          FAIR      43  40  88 CALM      30.28F
RAWLINS        FAIR      43  37  79 CALM      30.23F
SARATOGA       FAIR      43  37  81 CALM      30.27F
LARAMIE        FAIR      42  39  89 SE8       30.26F
CHEYENNE       FAIR      49  42  77 W8        30.18F
TORRINGTON     FAIR      49  45  86 E6        30.07F
PINE BLUFFS    FAIR      43  39  87 CALM      30.15F

$$




USA.gov is the U.S. government's official web portal to all federal, state and local government web resources and services.